Portada
METAR-TAF:

METAR-TAF

Aeropuertos :

Base aérea

Tafraoui, Argelia

latitud: 35-32-33N, longitud: 000-31-56W, altitud: 112 m

Observación

El informe se hizo hace 57 minutos, a las 19:00 UTC
Viento 6 kt del este-sureste
Temperatura 14°C
Humedad 88%
Presión 1017 hPa
Visibilidad 10 km o más
Escasas nubes a una altura de 2600 ft

METAR: DAOL 291900Z 11006KT 9999 FEW026 14/12 Q1017

Hora: 20:57 (19:57 UTC)


TAF: falta

Observaciones y pronósticos meteorológicos de más de 4000 aeropuertos (mensajes METAR y TAF).

Los puntos amarillos y rojos representan las estaciones disponibles.

Ponga el ratón en el punto deseado para ver el nombre de la estación.

Haga clic para ver las observaciones y los pronósticos meteorológicos.

Para cambiar el mapa : haga clic en los botones verdes con una cruz de color negro para hacer un zoom, en el botón verde con un guión para alejar o en las flechas verdes para mapas adyacentes.


METAR-TAF: